Simultaneous Nadir Overpasses (SNOs) Predictions

Prediction of SNOs between METOP-B and NOAA-19 Satellite Orbit:

Table of predicted SNOs for the next 14.0 days since TLE Epoch: 7/30/2022
Index Date (METOP-B) Time (METOP-B) Lat,Lon (METOP-B) SZA (METOP-B ) Date (NOAA-19) Time (NOAA-19) Lat,Lon (NOAA-19) SZA (NOAA-19 ) Distance(km) Time Diff (sec)
1 08/10/2022 01:22:40 80.88,-166.92 66.72 08/10/2022 01:21:35 80.87,-166.74 66.70 3.28 65
2 08/10/2022 02:13:22 -80.86, 0.10 113.32 08/10/2022 02:12:40 -80.87, 0.22 113.31 2.58 42
3 08/10/2022 03:04:02 80.87, 167.58 66.71 08/10/2022 03:03:35 80.87, 167.69 66.72 2.00 27
4 08/10/2022 03:54:43 -80.87, -25.04 113.27 08/10/2022 03:54:39 -80.87, -24.97 113.27 1.21 4
5 08/10/2022 04:45:23 80.88, 142.44 66.76 08/10/2022 04:45:34 80.87, 142.49 66.76 1.59 11
6 08/10/2022 05:36:05 -80.86, -50.54 113.27 08/10/2022 05:36:39 -80.87, -50.54 113.25 0.94 34
7 08/10/2022 06:26:45 80.87, 116.94 66.76 08/10/2022 06:27:34 80.87, 116.92 66.78 0.29 49



Historial Predications of SNOs between METOP-B and NOAA-19
